• In Belarus
  • List of Countries
  • For 7 days
  • Water Temperature
  • Satellite Maps
  • Weather Map
  • Weather Widgets
  • user-avatar
    Login

    Hourly Weather Sydney

    Today, 26 September, Wednesday

    Time Temperature Precipitation Wind Pressure Humidity
    00:00 +12°C° 0 mm 2 mps 767 mmHg 77%
    01:00 +12°C° 0 mm 2 mps 767 mmHg 78%
    02:00 +12°C° 0 mm 2 mps 767 mmHg 80%
    03:00 +10°C° 0 mm 2 mps 766 mmHg 82%
    04:00 +10°C° 0 mm 2 mps 766 mmHg 80%
    05:00 +10°C° 0.1 mm 2 mps 766 mmHg 82%
    06:00 +12°C° 0.1 mm 2 mps 766 mmHg 84%
    07:00 +12°C° 0.1 mm 2 mps 766 mmHg 86%
    08:00 +12°C° 1.1 mm 2 mps 766 mmHg 87%
    09:00 +13°C° 1.1 mm 2 mps 766 mmHg 89%
    10:00 +15°C° 0 mm 2 mps 766 mmHg 85%
    11:00 +15°C° 0.8 mm 2 mps 765 mmHg 80%
    12:00 +16°C° 0.8 mm 2 mps 765 mmHg 76%
    13:00 +17°C° 0.8 mm 2 mps 765 mmHg 72%
    14:00 +16°C° 0.2 mm 2 mps 765 mmHg 73%
    15:00 +16°C° 0.2 mm 2 mps 765 mmHg 75%
    16:00 +16°C° 0.2 mm 2 mps 765 mmHg 76%
    17:00 +15°C° 0.1 mm 2 mps 765 mmHg 80%
    18:00 +14°C° 0.1 mm 1 mps 765 mmHg 84%
    19:00 +13°C° 0.1 mm 1 mps 766 mmHg 88%
    20:00 +12°C° 0.1 mm 1 mps 766 mmHg 89%
    21:00 +11°C° 0.1 mm 0 mps 766 mmHg 91%
    22:00 +10°C° 0.1 mm 0 mps 766 mmHg 92%
    23:00 +10°C° 0 mm 0 mps 766 mmHg 93%

    Tomorrow, 27 September, Thursday

    Time Temperature Precipitation Wind Pressure Humidity
    00:00 +9°C° 0 mm 0 mps 766 mmHg 94%
    01:00 +10°C° 0 mm 1 mps 766 mmHg 95%
    02:00 +10°C° 0 mm 1 mps 765 mmHg 95%
    03:00 +10°C° 0 mm 1 mps 765 mmHg 95%
    04:00 +9°C° 0 mm 1 mps 765 mmHg 96%
    05:00 +10°C° 0 mm 1 mps 765 mmHg 93%
    06:00 +11°C° 0 mm 1 mps 765 mmHg 90%
    07:00 +10°C° 0 mm 2 mps 766 mmHg 88%
    08:00 +14°C° 0 mm 2 mps 765 mmHg 76%
    09:00 +16°C° 0 mm 2 mps 765 mmHg 65%
    10:00 +19°C° 0 mm 2 mps 765 mmHg 53%
    11:00 +20°C° 0 mm 2 mps 764 mmHg 48%
    12:00 +22°C° 0 mm 3 mps 764 mmHg 43%
    13:00 +23°C° 0 mm 4 mps 763 mmHg 38%
    14:00 +23°C° 0 mm 4 mps 763 mmHg 40%
    15:00 +22°C° 0 mm 5 mps 762 mmHg 42%
    16:00 +22°C° 0 mm 6 mps 762 mmHg 45%
    17:00 +20°C° 0 mm 6 mps 762 mmHg 55%
    18:00 +17°C° 0 mm 6 mps 762 mmHg 65%
    19:00 +15°C° 0 mm 5 mps 763 mmHg 75%
    20:00 +14°C° 0 mm 5 mps 763 mmHg 78%
    21:00 +13°C° 0 mm 5 mps 763 mmHg 82%
    22:00 +12°C° 0 mm 5 mps 764 mmHg 85%
    23:00 +12°C° 0 mm 4 mps 763 mmHg 86%

    Day after tomorrow, 28 September, Friday

    Time Temperature Precipitation Wind Pressure Humidity
    00:00 +11°C° 0 mm 4 mps 763 mmHg 87%
    01:00 +11°C° 0 mm 4 mps 762 mmHg 88%
    02:00 +11°C° 0 mm 4 mps 762 mmHg 86%
    03:00 +11°C° 0 mm 4 mps 762 mmHg 84%
    04:00 +10°C° 0 mm 4 mps 761 mmHg 83%
    05:00 +11°C° 0 mm 4 mps 762 mmHg 75%
    06:00 +13°C° 0 mm 4 mps 762 mmHg 67%
    07:00 +14°C° 0 mm 4 mps 762 mmHg 59%
    08:00 +19°C° 0 mm 4 mps 762 mmHg 49%
    09:00 +22°C° 0 mm 4 mps 762 mmHg 39%
    10:00 +27°C° 0 mm 4 mps 761 mmHg 29%
    11:00 +29°C° 0 mm 5 mps 761 mmHg 25%
    12:00 +32°C° 0 mm 5 mps 760 mmHg 21%
    13:00 +33°C° 0 mm 6 mps 759 mmHg 17%
    14:00 +30°C° 0 mm 5 mps 759 mmHg 23%
    15:00 +29°C° 0 mm 5 mps 759 mmHg 29%
    16:00 +27°C° 0 mm 4 mps 758 mmHg 35%
    17:00 +25°C° 0.2 mm 4 mps 759 mmHg 46%
    18:00 +22°C° 0.2 mm 4 mps 759 mmHg 56%
    19:00 +19°C° 0.2 mm 4 mps 759 mmHg 67%
    20:00 +19°C° 0.9 mm 3 mps 760 mmHg 73%
    21:00 +18°C° 0.9 mm 3 mps 760 mmHg 80%
    22:00 +17°C° 0.9 mm 2 mps 761 mmHg 86%
    23:00 +17°C° 0.2 mm 2 mps 761 mmHg 88%

    29 September, Saturday

    Time Temperature Precipitation Wind Pressure Humidity
    00:00 +16°C° 0.2 mm 3 mps 760 mmHg 89%
    01:00 +15°C° 0.2 mm 4 mps 760 mmHg 91%
    02:00 +14°C° 0.1 mm 4 mps 760 mmHg 91%
    03:00 +14°C° 0.1 mm 4 mps 760 mmHg 92%
    04:00 +14°C° 0.1 mm 5 mps 761 mmHg 92%
    05:00 +14°C° 0.3 mm 4 mps 761 mmHg 90%
    06:00 +14°C° 0.3 mm 4 mps 762 mmHg 88%
    07:00 +14°C° 0.3 mm 4 mps 763 mmHg 86%
    08:00 +15°C° 0.2 mm 4 mps 763 mmHg 74%
    09:00 +17°C° 0.2 mm 5 mps 764 mmHg 61%
    10:00 +19°C° 0.2 mm 6 mps 764 mmHg 49%
    11:00 +18°C° 0.2 mm 7 mps 764 mmHg 49%
    12:00 +17°C° 0.2 mm 8 mps 764 mmHg 49%
    13:00 +17°C° 0.2 mm 9 mps 764 mmHg 49%
    14:00 +16°C° 0 mm 8 mps 764 mmHg 48%
    15:00 +16°C° 0 mm 8 mps 764 mmHg 48%
    16:00 +16°C° 0 mm 8 mps 765 mmHg 47%
    17:00 +13°C° 0 mm 8 mps 766 mmHg 53%
    18:00 +12°C° 0 mm 7 mps 767 mmHg 58%
    19:00 +10°C° 0 mm 6 mps 768 mmHg 64%
    20:00 +10°C° 0 mm 6 mps 769 mmHg 67%
    21:00 +10°C° 0 mm 5 mps 769 mmHg 69%
    22:00 +9°C° 0 mm 5 mps 770 mmHg 71%
    23:00 +9°C° 0 mm 5 mps 770 mmHg 73%

    30 September, Sunday

    Time Temperature Precipitation Wind Pressure Humidity
    00:00 +8°C° 0 mm 4 mps 770 mmHg 74%
    01:00 +8°C° 0 mm 4 mps 770 mmHg 76%
    02:00 +8°C° 0 mm 4 mps 770 mmHg 77%
    03:00 +7°C° 0 mm 4 mps 770 mmHg 78%
    04:00 +7°C° 0 mm 4 mps 770 mmHg 79%
    05:00 +8°C° 0 mm 4 mps 771 mmHg 75%
    06:00 +10°C° 0 mm 4 mps 771 mmHg 71%
    07:00 +10°C° 0 mm 3 mps 772 mmHg 67%
    08:00 +13°C° 0 mm 3 mps 772 mmHg 59%
    09:00 +16°C° 0 mm 3 mps 772 mmHg 50%
    10:00 +18°C° 0 mm 3 mps 772 mmHg 41%
    11:00 +19°C° 0 mm 3 mps 771 mmHg 40%
    12:00 +19°C° 0 mm 4 mps 771 mmHg 39%
    13:00 +20°C° 0 mm 4 mps 771 mmHg 38%
    14:00 +19°C° 0 mm 4 mps 770 mmHg 42%
    15:00 +19°C° 0 mm 4 mps 770 mmHg 46%
    16:00 +18°C° 0 mm 4 mps 770 mmHg 49%
    17:00 +15°C° 0 mm 4 mps 771 mmHg 58%
    18:00 +14°C° 0 mm 3 mps 771 mmHg 67%
    19:00 +12°C° 0 mm 3 mps 772 mmHg 76%
    20:00 +12°C° 0 mm 2 mps 772 mmHg 79%
    21:00 +12°C° 0 mm 2 mps 772 mmHg 83%
    22:00 +12°C° 0 mm 2 mps 773 mmHg 86%
    23:00 +12°C° 0 mm 2 mps 773 mmHg 86%

    1 October, Monday

    Time Temperature Precipitation Wind Pressure Humidity
    00:00 +12°C° 0 mm 1 mps 772 mmHg 85%
    01:00 +12°C° 0 mm 1 mps 772 mmHg 84%
    02:00 +12°C° 0 mm 1 mps 772 mmHg 86%
    03:00 +11°C° 0 mm 1 mps 772 mmHg 87%
    04:00 +11°C° 0 mm 1 mps 772 mmHg 89%
    05:00 +12°C° 0 mm 1 mps 772 mmHg 86%
    06:00 +12°C° 0 mm 1 mps 772 mmHg 82%
    07:00 +13°C° 0 mm 2 mps 773 mmHg 79%
    08:00 +15°C° 0 mm 2 mps 773 mmHg 69%
    09:00 +18°C° 0 mm 2 mps 772 mmHg 58%
    10:00 +20°C° 0 mm 2 mps 772 mmHg 47%
    11:00 +21°C° 0 mm 2 mps 771 mmHg 47%
    12:00 +21°C° 0 mm 2 mps 771 mmHg 46%
    13:00 +21°C° 0 mm 3 mps 771 mmHg 46%
    14:00 +21°C° 0 mm 3 mps 770 mmHg 47%
    15:00 +21°C° 0 mm 3 mps 770 mmHg 48%
    16:00 +20°C° 0 mm 4 mps 770 mmHg 49%
    17:00 +19°C° 0 mm 4 mps 770 mmHg 56%
    18:00 +17°C° 0 mm 4 mps 770 mmHg 63%
    19:00 +14°C° 0 mm 4 mps 771 mmHg 70%
    20:00 +13°C° 0 mm 3 mps 771 mmHg 75%
    21:00 +13°C° 0 mm 3 mps 771 mmHg 79%
    22:00 +12°C° 0 mm 3 mps 771 mmHg 83%
    23:00 +11°C° 0 mm 3 mps 771 mmHg 85%
    Show more